Chatawa, MS

10:48 PM CST on February 10, 2016 (GMT -0600)
McComb-Pike County-Lewis

Weather History for KMCB - October, 2013

Change the Weather History Date:

Tuesday, October 29, 2013

  Actual Average Record
Temperature  
Mean Temperature 68 °F -  
Max Temperature 79 °F 75 °F 87 °F (1984)
Min Temperature 57 °F 50 °F 30 °F (2008)
Cooling Degree Days 2    
Growing Degree Days 18 (Base 50)    
Moisture  
Dew Point 60 °F    
Average Humidity 78    
Maximum Humidity 97    
Minimum Humidity 54    
Precipitation  
Precipitation 0.00 in - - ()
Sea Level Pressure  
Sea Level Pressure 30.19 in    
Wind  
Wind Speed 2 mph (SE)    
Max Wind Speed 10 mph    
Max Gust Speed -    
Visibility 9 miles    
Events      
Averages and records for this station are not official NWS values.
T = Trace of Precipitation, MM = Missing Value Source: NWS Daily Summary

Daily Weather History Graph

Daily Weather History Graph

Search for Another Location

Airport or City:

Trip Planner

Search our weather history database for the weather conditions in past years. The results will help you decide how hot, cold, wet, or windy it might be!

Date:

Astronomy

Oct. 29, 2013 Rise Set
Actual Time 7:15 AM CDT 6:15 PM CDT
Civil Twilight 6:50 AM CDT 6:40 PM CDT
Nautical Twilight 6:21 AM CDT 7:08 PM CDT
Astronomical Twilight 5:53 AM CDT 7:37 PM CDT
Moon 2:24 AM CDT (10/29) 3:12 PM CDT (10/29)
Length of Visible Light 11h 50m
Length of Day
11h 00m
Waning Crescent, 25% of the Moon is Illuminated
Oct 29
Waning Crescent
Nov 3
New
Nov 9
First Quarter
Nov 17
Full
Nov 25
Last Quarter

Hourly Weather History & Observations

Time (CDT) Temp. Dew Point Humidity Pressure Visibility Wind Dir Wind Speed Gust Speed Precip Events Conditions
12:53 AM 64.0 °F 61.0 °F 90% 30.19 in 10.0 mi Calm Calm - N/A   Clear
1:53 AM 63.0 °F 60.1 °F 90% 30.18 in 10.0 mi Calm Calm - N/A   Clear
2:53 AM 61.0 °F 59.0 °F 93% 30.19 in 7.0 mi Calm Calm - N/A   Clear
3:53 AM 59.0 °F 57.0 °F 93% 30.19 in 3.0 mi Calm Calm - N/A   Clear
4:53 AM 60.1 °F 57.0 °F 90% 30.19 in 9.0 mi Calm Calm - N/A   Clear
5:53 AM 60.1 °F 57.0 °F 90% 30.20 in 10.0 mi Calm Calm - N/A   Clear
6:53 AM 57.9 °F 57.0 °F 97% 30.21 in 10.0 mi Calm Calm - N/A   Clear
7:53 AM 61.0 °F 57.9 °F 90% 30.22 in 9.0 mi Calm Calm - N/A   Clear
8:53 AM 64.0 °F 61.0 °F 90% 30.23 in 9.0 mi Calm Calm - N/A   Clear
9:53 AM 70.0 °F 64.0 °F 81% 30.24 in 10.0 mi ESE 5.8 mph - N/A   Clear
10:53 AM 73.9 °F 63.0 °F 68% 30.23 in 10.0 mi SE 8.1 mph - N/A   Clear
11:53 AM 75.9 °F 63.0 °F 64% 30.22 in 10.0 mi SSE 10.4 mph - N/A   Scattered Clouds
12:53 PM 78.1 °F 62.1 °F 58% 30.20 in 10.0 mi SSE 9.2 mph - N/A   Partly Cloudy
1:53 PM 78.1 °F 60.1 °F 54% 30.17 in 10.0 mi ESE 6.9 mph - N/A   Partly Cloudy
2:53 PM 78.1 °F 60.1 °F 54% 30.16 in 10.0 mi SE 8.1 mph - N/A   Clear
3:53 PM 78.1 °F 61.0 °F 56% 30.16 in 10.0 mi Variable 6.9 mph - N/A   Clear
4:53 PM 75.9 °F 62.1 °F 62% 30.16 in 10.0 mi SSE 5.8 mph - N/A   Partly Cloudy
5:53 PM 75.0 °F 61.0 °F 62% 30.15 in 10.0 mi SE 5.8 mph - N/A   Clear
6:53 PM 69.1 °F 61.0 °F 75% 30.17 in 10.0 mi Calm Calm - N/A   Clear
7:53 PM 66.0 °F 61.0 °F 84% 30.19 in 10.0 mi Calm Calm - N/A   Clear
8:53 PM 66.9 °F 60.1 °F 79% 30.19 in 8.0 mi SE 3.5 mph - N/A   Clear
9:53 PM 66.9 °F 62.1 °F 84% 30.21 in 10.0 mi SE 3.5 mph - N/A   Clear
10:53 PM 64.9 °F 62.1 °F 90% 30.21 in 10.0 mi SE 4.6 mph - N/A   Clear
11:53 PM 64.0 °F 61.0 °F 90% 30.20 in 8.0 mi Calm Calm - N/A   Clear